Location: NCO
(38.4404°N, 77.1340°W)
Time: 11:20:17
(UTC-04:00)

OTV 5 (USA 277) - Visible Passes

Search period start: 20 June 2018 00:00
Search period end: 30 June 2018 00:00
Orbit: 313 x 320 km, 54.5° (Epoch: 19 June)

Date Brightness Start Highest point End Pass type
(mag) Time Alt. Az. Time Alt. Az. Time Alt. Az.
20 Jun ? 02:26:35 10° N 02:27:38 12° NNE 02:28:40 10° NE visible
20 Jun ? 03:59:32 10° NW 04:01:26 38° WNW 04:01:26 38° WNW visible
21 Jun ? 02:40:01 10° NNW 02:40:26 13° NNW 02:40:26 13° NNW visible
27 Jun ? 23:38:30 10° N 23:39:24 14° N 23:39:24 14° N visible
28 Jun ? 23:52:19 10° NNW 23:52:54 15° NNW 23:52:54 15° NNW visible
29 Jun ? 22:33:48 10° N 22:34:41 11° NNE 22:35:34 10° NE visible
